Tracking 19854 objects as of 22-Sep-2019
HD Live streaming from Space Station
objects crossing your sky now

NOAA 16 DEB

Track NOAA 16 DEB now!
10-day predictions


NORAD ID: 41095
Int'l Code: 2000-055BE
Perigee: 761.9 km
Apogee: 836.1 km
Inclination: 99.0 °
Period: 100.7 minutes
Semi major axis: 7169 km
RCS: Unknown
Launch date: September 21, 2000
Source: United States (US)
Launch site: AIR FORCE WESTERN TEST RANGE (AFWTR)

Note: This is SATELLITE DEBRIS
aabbcc
Your satellite tracking list
Your tracking list is empty




NASA's NSSDC Master Catalog

Two Line Element Set (TLE):
1 41095U 00055BE  19262.57433903 +.00002159 +00000-0 +84321-3 0  9991
2 41095 098.9907 026.9717 0051744 053.6446 306.9494 14.29969991197959
Source of the keplerian elements: AFSPC